FW3337 Weather Reports


Display with metric or nautical units.
time (UTC)temp
F
wind
direction
speed
MPH
gust
MPH
rain 1hr
in
rain 24hr
in
rain mn
in
humidity
%
barometer
mb
20260502163045 55 57 1.0 5.0 0.00 0.03 0.03 55 1011.3
20260502161532 56 50 2.0 4.0 0.00 0.03 0.03 54 1011.4
20260502151544 51 295 1.0 8.0 0.00 0.03 0.03 68 1011.8
20260502123001 49 311 1.0 4.0 0.00 0.03 0.03 87 1011.7
20260502121557 49 309 3.0 9.0 0.00 0.03 0.03 87 1011.6
20260502114550 49 245 0.0 3.0 0.00 0.03 0.03 93 1011.9
20260502113052 48 321 0.0 0.0 0.00 0.03 0.03 94 1012.1
20260502111548 47 321 0.0 0.0 0.00 0.03 0.03 94 1011.9
20260502110049 46 321 0.0 0.0 0.00 0.03 0.03 95 1011.4
20260502104542 46 321 0.0 0.0 0.00 0.03 0.03 94 1011.3
20260502103041 46 321 0.0 0.0 0.00 0.03 0.03 94 1011.1
20260502101543 46 321 0.0 0.0 0.01 0.03 0.03 93 1011.2
20260502091534 48 321 0.0 0.0 0.01 0.02 0.02 91 1011.4
20260502071525 48 180 0.0 4.0 0.00 0.00 0.00 91 1011.0
20260502070038 48 87 0.0 3.0 0.00 0.00 0.00 93 1011.2
20260502064523 48 87 0.0 2.0 0.00 0.00 0.00 93 1011.1
20260502063034 48 87 0.0 2.0 0.00 0.00 0.00 93 1010.9
20260502061519 48 87 0.0 0.0 0.00 0.00 0.00 92 1011.2
20260502060019 48 87 0.0 0.0 0.00 0.00 0.00 92 1011.2
20260502054530 48 87 0.0 2.0 0.00 0.00 0.00 92 1011.2
20260502053016 48 87 0.0 0.0 0.00 0.00 0.00 91 1011.2
20260502051515 48 87 0.0 0.0 0.00 0.00 0.00 90 1011.4
20260502050022 48 87 0.0 1.0 0.00 0.00 0.00 89 1011.2
20260502044513 48 87 0.0 0.0 0.00 0.00 0.00 88 1011.4
20260502043016 48 87 0.0 0.0 0.00 0.00 0.00 88 1011.3
20260502041510 49 87 0.0 0.0 0.00 0.00 0.00 87 1011.3
20260502040010 49 87 0.0 0.0 0.00 0.00 0.00 87 1011.3
20260502034512 49 87 0.0 0.0 0.00 0.00 0.00 86 1011.3
20260502033007 49 87 0.0 1.0 0.00 0.00 0.00 85 1011.2
20260502031506 49 87 0.0 1.0 0.00 0.00 0.00 84 1011.2
20260502030006 49 87 0.0 0.0 0.00 0.00 0.00 83 1011.6
20260502024505 50 87 0.0 0.0 0.00 0.00 0.00 82 1011.5
20260502023004 50 87 0.0 0.0 0.00 0.00 0.00 80 1011.7
20260502021503 50 87 0.0 0.0 0.00 0.00 0.00 80 1011.5
20260502020002 50 87 0.0 0.0 0.00 0.00 0.00 78 1011.6
20260502014501 51 87 0.0 0.0 0.00 0.00 0.00 77 1011.3
20260502013002 52 87 0.0 2.0 0.00 0.00 0.00 75 1011.2
20260502011603 53 87 0.0 0.0 0.00 0.00 0.00 71 1010.9
20260502010100 55 87 0.0 0.0 0.00 0.00 0.00 70 1011.0
20260502004600 56 87 0.0 0.0 0.00 0.00 0.00 65 1011.0
20260502003059 56 87 0.0 0.0 0.00 0.00 0.00 66 1011.0
20260502001636 57 87 0.0 2.0 0.00 0.00 0.00 65 1010.8
20260502000121 58 87 0.0 2.0 0.00 0.00 0.00 61 1010.6
20260501234558 58 87 1.0 4.0 0.00 0.00 0.00 59 1010.3
20260501233057 59 227 0.0 3.0 0.00 0.00 0.00 55 1010.0
20260501231601 60 226 2.0 5.0 0.00 0.00 0.00 53 1009.7
20260501230056 61 203 1.0 4.0 0.00 0.00 0.00 49 1009.6
20260501224607 61 205 1.0 4.0 0.00 0.00 0.00 45 1009.3
20260501223054 62 189 0.0 5.0 0.00 0.00 0.00 45 1009.3
20260501221554 62 216 1.0 5.0 0.00 0.00 0.00 45 1009.3
20260501220055 62 260 1.0 7.0 0.00 0.00 0.00 41 1009.2
20260501214553 63 222 3.0 10.0 0.00 0.00 0.00 39 1009.5
20260501213052 63 144 1.0 5.0 0.00 0.00 0.00 40 1009.2
20260501211551 63 189 2.0 4.0 0.00 0.00 0.00 39 1009.2
20260501210051 63 270 1.0 7.0 0.00 0.00 0.00 37 1009.0
20260501204550 63 231 1.0 4.0 0.00 0.00 0.00 37 1009.1
20260501203049 63 203 1.0 5.0 0.00 0.00 0.00 37 1009.2
20260501201548 64 216 0.0 8.0 0.00 0.00 0.00 36 1009.4
20260501200049 64 226 5.0 12.0 0.00 0.00 0.00 35 1009.3
20260501194555 63 145 1.0 5.0 0.00 0.00 0.00 35 1009.4
20260501193044 64 302 3.0 8.0 0.00 0.00 0.00 34 1009.7
20260501191549 63 77 0.0 8.0 0.00 0.00 0.00 38 1009.6
20260501190040 62 172 1.0 4.0 0.00 0.00 0.00 38 1009.7
20260501184537 63 320 2.0 5.0 0.00 0.00 0.00 39 1010.1
20260501183038 63 303 3.0 6.0 0.00 0.00 0.00 36 1010.4
20260501181535 62 298 3.0 9.0 0.00 0.00 0.00 38 1010.6
20260501180134 61 258 2.0 8.0 0.00 0.00 0.00 39 1010.6